Location: Newark
(63.1158°N, 8.1461°E)
Time: 23:19:48
(UTC+00:00)

Envisat - Pass Details

Date: 13 December 2019
Orbit: 764 x 766 km, 98.1° (Epoch: 26 January)

Event Time Altitude Azimuth Distance (km) Brightness Sun altitude
Rises 17:28:55 0° 178° (S) 3,229 6.3 -21.4°
Reaches altitude 10° 17:31:17 10° 184° (S) 2,307 5.6 -21.6°
Maximum altitude 17:36:14 51° 260° (W) 966 3.8 -22.2°
Drops below altitude 10° 17:41:13 10° 336° (NNW) 2,321 5.7 -22.7°
Sets 17:43:37 0° 342° (NNW) 3,251 6.4 -23.0°
